Time,TemperatureF,DewpointF,PressureIn,WindDirection,WindDirectionDegrees,WindSpeedMPH,WindSpeedGustMPH,Humidity,HourlyPrecipIn,Conditions,Clouds,dailyrainin,SoftwareType,DateUTC
2013-03-25 00:02:00,31.1,31.1,29.79,NNW,336,5.4,5.4,100,0.00,,,0.00,VWS V14.01,2013-03-25 05:02:00,
2013-03-25 00:07:00,31.1,31.1,29.79,NNW,334,11.0,11.9,100,0.00,,,0.00,VWS V14.01,2013-03-25 05:07:00,
2013-03-25 00:12:00,31.1,31.1,29.79,North,6,3.6,8.7,100,0.00,,,0.00,VWS V14.01,2013-03-25 05:12:00,
2013-03-25 00:18:00,31.1,31.1,29.79,North,357,8.7,12.8,100,0.00,,,0.00,VWS V14.01,2013-03-25 05:18:00,
2013-03-25 00:23:00,30.9,30.9,29.79,North,2,10.5,14.5,100,0.00,,,0.00,VWS V14.01,2013-03-25 05:23:00,
2013-03-25 00:28:00,30.9,30.9,29.79,NW,318,5.4,17.4,100,0.00,,,0.00,VWS V14.01,2013-03-25 05:28:00,
2013-03-25 00:33:00,30.9,30.9,29.79,NNW,346,3.6,15.4,100,0.00,,,0.00,VWS V14.01,2013-03-25 05:33:00,
2013-03-25 00:38:00,30.9,30.9,29.79,NW,318,10.5,15.0,100,0.00,,,0.00,VWS V14.01,2013-03-25 05:38:00,
2013-03-25 00:43:00,30.7,30.7,29.79,North,0,10.1,13.2,100,0.00,,,0.00,VWS V14.01,2013-03-25 05:43:00,
2013-03-25 00:48:00,30.7,30.7,29.79,NW,320,6.3,15.0,100,0.00,,,0.00,VWS V14.01,2013-03-25 05:48:00,
2013-03-25 00:53:00,30.6,30.6,29.79,NNW,335,12.3,13.2,100,0.00,,,0.00,VWS V14.01,2013-03-25 05:53:00,
2013-03-25 00:58:00,30.6,30.6,29.79,NNW,337,7.6,14.5,100,0.00,,,0.00,VWS V14.01,2013-03-25 05:58:00,
2013-03-25 01:03:00,30.6,30.6,29.79,NW,322,12.8,15.4,100,0.00,,,0.00,VWS V14.01,2013-03-25 06:03:00,
2013-03-25 01:08:00,30.4,30.4,29.79,NNW,345,8.7,11.0,100,0.00,,,0.00,VWS V14.01,2013-03-25 06:08:00,
2013-03-25 01:14:00,30.4,30.4,29.79,North,357,5.4,13.2,100,0.00,,,0.00,VWS V14.01,2013-03-25 06:14:00,
2013-03-25 01:19:00,30.2,30.2,29.79,North,0,5.4,12.3,100,0.00,,,0.00,VWS V14.01,2013-03-25 06:19:00,
2013-03-25 01:24:00,30.2,30.2,29.79,North,0,7.6,15.4,100,0.00,,,0.00,VWS V14.01,2013-03-25 06:24:00,
2013-03-25 01:29:00,30.0,30.0,29.79,North,357,10.5,14.5,100,0.00,,,0.00,VWS V14.01,2013-03-25 06:29:00,
2013-03-25 01:34:00,30.0,30.0,29.79,NW,325,8.3,10.5,100,0.00,,,0.00,VWS V14.01,2013-03-25 06:34:00,
2013-03-25 01:39:00,29.8,29.8,29.79,North,353,8.1,10.5,100,0.00,,,0.00,VWS V14.01,2013-03-25 06:39:00,
2013-03-25 01:44:00,29.7,29.7,29.79,NNW,333,8.7,15.0,100,0.00,,,0.00,VWS V14.01,2013-03-25 06:44:00,
2013-03-25 01:49:00,29.7,29.7,29.82,NNW,346,8.1,15.0,100,0.00,,,0.00,VWS V14.01,2013-03-25 06:49:00,
2013-03-25 01:54:00,29.5,29.5,29.82,NNE,14,0.0,10.5,100,0.00,,,0.00,VWS V14.01,2013-03-25 06:54:00,
2013-03-25 01:59:00,29.5,29.5,29.82,North,353,5.4,12.8,100,0.00,,,0.00,VWS V14.01,2013-03-25 06:59:00,
2013-03-25 02:04:00,29.5,29.5,29.82,North,353,6.3,15.4,100,0.00,,,0.00,VWS V14.01,2013-03-25 07:04:00,
2013-03-25 02:09:00,29.5,29.5,29.82,NW,325,5.8,14.1,100,0.00,,,0.00,VWS V14.01,2013-03-25 07:09:00,
2013-03-25 02:14:00,29.5,29.5,29.82,NW,304,12.8,12.8,100,0.00,,,0.00,VWS V14.01,2013-03-25 07:14:00,
2013-03-25 02:19:00,29.5,29.5,29.82,NNW,339,8.7,12.3,100,0.00,,,0.00,VWS V14.01,2013-03-25 07:19:00,
2013-03-25 02:24:00,29.5,29.5,29.82,North,4,11.9,15.0,100,0.00,,,0.00,VWS V14.01,2013-03-25 07:24:00,
2013-03-25 02:29:00,29.5,29.5,29.82,NE,42,2.7,12.8,100,0.00,,,0.00,VWS V14.01,2013-03-25 07:29:00,
2013-03-25 02:34:00,29.3,29.3,29.82,North,353,8.1,12.8,100,0.00,,,0.00,VWS V14.01,2013-03-25 07:34:00,
2013-03-25 02:40:00,29.3,29.3,29.82,North,353,9.6,10.5,100,0.00,,,0.00,VWS V14.01,2013-03-25 07:40:00,
2013-03-25 02:45:00,29.3,29.3,29.82,NNW,340,4.0,12.8,100,0.00,,,0.00,VWS V14.01,2013-03-25 07:45:00,
2013-03-25 02:50:00,29.3,29.3,29.82,North,0,6.3,12.3,100,0.00,,,0.00,VWS V14.01,2013-03-25 07:50:00,
2013-03-25 02:55:00,29.1,29.1,29.82,NW,309,8.1,8.1,100,0.00,,,0.00,VWS V14.01,2013-03-25 07:55:00,
2013-03-25 03:00:00,29.1,29.1,29.82,NNW,333,8.7,8.7,100,0.00,,,0.00,VWS V14.01,2013-03-25 08:00:00,
2013-03-25 03:05:00,29.1,29.1,29.82,North,357,5.4,5.4,100,0.00,,,0.00,VWS V14.01,2013-03-25 08:05:00,
2013-03-25 03:10:00,28.9,28.9,29.82,North,357,9.6,9.6,100,0.00,,,0.00,VWS V14.01,2013-03-25 08:10:00,
2013-03-25 03:15:00,28.9,28.9,29.82,NW,320,5.8,10.1,100,0.00,,,0.00,VWS V14.01,2013-03-25 08:15:00,
2013-03-25 03:20:00,28.8,28.8,29.82,North,357,8.1,8.3,100,0.00,,,0.00,VWS V14.01,2013-03-25 08:20:00,
2013-03-25 03:25:00,28.8,28.8,29.82,NNW,342,11.0,11.0,100,0.00,,,0.00,VWS V14.01,2013-03-25 08:25:00,
2013-03-25 03:30:00,28.8,28.8,29.82,NNW,339,10.1,12.3,100,0.00,,,0.00,VWS V14.01,2013-03-25 08:30:00,
2013-03-25 03:35:00,28.8,28.8,29.82,NNW,343,11.0,11.0,100,0.00,,,0.00,VWS V14.01,2013-03-25 08:35:00,
2013-03-25 03:40:00,28.8,28.8,29.82,NNW,329,6.3,7.6,100,0.00,,,0.00,VWS V14.01,2013-03-25 08:40:00,
2013-03-25 03:45:00,28.6,28.6,29.82,NNW,346,8.1,10.1,100,0.00,,,0.00,VWS V14.01,2013-03-25 08:45:00,
2013-03-25 03:50:00,28.6,28.6,29.82,North,350,4.0,8.3,100,0.00,,,0.00,VWS V14.01,2013-03-25 08:50:00,
2013-03-25 03:56:00,28.6,28.6,29.82,NNW,342,10.5,10.5,100,0.00,,,0.00,VWS V14.01,2013-03-25 08:56:00,
2013-03-25 04:01:00,28.6,28.6,29.82,NW,325,6.3,6.3,100,0.00,,,0.00,VWS V14.01,2013-03-25 09:01:00,
2013-03-25 04:06:00,28.6,28.6,29.82,NNW,329,3.6,6.3,100,0.00,,,0.00,VWS V14.01,2013-03-25 09:06:00,
2013-03-25 04:11:00,28.6,28.6,29.82,North,357,7.6,9.2,100,0.00,,,0.00,VWS V14.01,2013-03-25 09:11:00,
2013-03-25 04:16:00,28.6,28.6,29.82,North,353,10.5,17.4,100,0.00,,,0.00,VWS V14.01,2013-03-25 09:16:00,
2013-03-25 04:21:00,28.6,28.6,29.82,NNW,333,5.8,6.3,100,0.00,,,0.00,VWS V14.01,2013-03-25 09:21:00,
2013-03-25 04:26:00,28.6,28.6,29.82,NNW,339,7.6,11.0,100,0.00,,,0.00,VWS V14.01,2013-03-25 09:26:00,
2013-03-25 04:32:00,28.6,28.6,29.82,North,353,10.1,12.3,100,0.00,,,0.00,VWS V14.01,2013-03-25 09:32:00,
2013-03-25 04:37:00,28.6,28.6,29.82,NNW,340,6.3,10.5,100,0.00,,,0.00,VWS V14.01,2013-03-25 09:37:00,
2013-03-25 04:42:00,28.6,28.6,29.82,NNW,334,5.8,12.3,100,0.00,,,0.00,VWS V14.01,2013-03-25 09:42:00,
2013-03-25 04:47:00,28.6,28.6,29.82,NW,325,8.1,11.0,100,0.00,,,0.00,VWS V14.01,2013-03-25 09:47:00,
2013-03-25 04:52:00,28.6,28.6,29.82,NNW,340,11.0,12.3,100,0.00,,,0.00,VWS V14.01,2013-03-25 09:52:00,
2013-03-25 04:57:00,28.6,28.6,29.82,North,353,12.8,14.1,100,0.00,,,0.00,VWS V14.01,2013-03-25 09:57:00,
2013-03-25 05:02:00,28.8,28.8,29.82,NNW,344,11.0,11.0,100,0.00,,,0.00,VWS V14.01,2013-03-25 10:02:00,
2013-03-25 05:07:00,28.8,28.8,29.82,NNE,23,8.1,8.1,100,0.00,,,0.00,VWS V14.01,2013-03-25 10:07:00,
2013-03-25 05:12:00,28.8,28.8,29.82,NNW,339,8.3,10.5,100,0.00,,,0.00,VWS V14.01,2013-03-25 10:12:00,
2013-03-25 05:17:00,28.8,28.8,29.82,NW,313,8.1,11.0,100,0.00,,,0.00,VWS V14.01,2013-03-25 10:17:00,
2013-03-25 05:22:00,28.8,28.8,29.82,North,10,6.3,10.1,100,0.00,,,0.00,VWS V14.01,2013-03-25 10:22:00,
2013-03-25 05:27:00,28.8,28.8,29.82,NW,322,8.3,12.8,100,0.00,,,0.00,VWS V14.01,2013-03-25 10:27:00,
2013-03-25 05:33:00,28.8,28.8,29.82,North,353,12.8,15.4,100,0.00,,,0.00,VWS V14.01,2013-03-25 10:33:00,
2013-03-25 05:38:00,28.8,28.8,29.82,NNW,346,5.8,12.3,100,0.00,,,0.00,VWS V14.01,2013-03-25 10:38:00,
2013-03-25 05:43:00,28.8,28.8,29.82,NW,317,11.0,12.8,100,0.00,,,0.00,VWS V14.01,2013-03-25 10:43:00,
2013-03-25 05:48:00,28.8,28.8,29.82,North,350,11.0,15.9,100,0.00,,,0.00,VWS V14.01,2013-03-25 10:48:00,
2013-03-25 05:53:00,28.8,28.8,29.82,NNW,335,8.1,14.5,100,0.00,,,0.00,VWS V14.01,2013-03-25 10:53:00,
2013-03-25 05:58:00,28.8,28.8,29.82,NNW,339,5.8,19.2,100,0.00,,,0.00,VWS V14.01,2013-03-25 10:58:00,
2013-03-25 06:03:00,28.8,28.8,29.82,NW,316,8.7,15.4,100,0.00,,,0.00,VWS V14.01,2013-03-25 11:03:00,
2013-03-25 06:08:00,28.8,28.8,29.82,North,357,7.6,11.0,100,0.00,,,0.00,VWS V14.01,2013-03-25 11:08:00,
2013-03-25 06:13:00,28.8,28.8,29.82,NNE,19,10.1,14.1,100,0.00,,,0.00,VWS V14.01,2013-03-25 11:13:00,
2013-03-25 06:18:00,28.6,28.6,29.85,NW,325,5.8,17.4,100,0.00,,,0.00,VWS V14.01,2013-03-25 11:18:00,
2013-03-25 06:23:00,28.6,28.6,29.85,WNW,283,8.7,10.5,100,0.00,,,0.00,VWS V14.01,2013-03-25 11:23:00,
2013-03-25 06:28:00,28.6,28.6,29.85,North,4,10.1,15.4,100,0.00,,,0.00,VWS V14.01,2013-03-25 11:28:00,
2013-03-25 06:33:00,28.6,28.6,29.85,North,4,7.2,11.9,100,0.00,,,0.00,VWS V14.01,2013-03-25 11:33:00,
2013-03-25 06:38:00,28.6,28.6,29.85,NNE,14,10.5,12.3,100,0.00,,,0.00,VWS V14.01,2013-03-25 11:38:00,
2013-03-25 06:43:00,28.4,28.4,29.85,North,1,7.2,18.8,100,0.00,,OVC075,0.00,VWS V14.01,2013-03-25 11:43:00,
2013-03-25 06:49:00,28.4,28.4,29.85,NNW,338,7.6,13.2,100,0.00,,OVC075,0.00,VWS V14.01,2013-03-25 11:49:00,
2013-03-25 06:54:00,28.2,27.7,29.85,North,0,10.1,13.2,98,0.00,,OVC075,0.00,VWS V14.01,2013-03-25 11:54:00,
2013-03-25 06:59:00,28.2,27.7,29.85,North,349,6.3,15.4,98,0.00,,OVC075,0.00,VWS V14.01,2013-03-25 11:59:00,
2013-03-25 07:04:00,28.2,27.7,29.85,North,353,5.8,11.0,98,0.00,,OVC075,0.00,VWS V14.01,2013-03-25 12:04:00,
2013-03-25 07:09:00,28.2,27.7,29.85,North,353,8.1,11.0,98,0.00,,OVC075,0.00,VWS V14.01,2013-03-25 12:09:00,
2013-03-25 07:14:00,28.2,27.7,29.85,NNW,335,7.6,15.4,98,0.00,,OVC075,0.00,VWS V14.01,2013-03-25 12:14:00,
2013-03-25 07:19:00,28.0,27.5,29.85,North,353,8.3,13.2,98,0.00,,OVC075,0.00,VWS V14.01,2013-03-25 12:19:00,
2013-03-25 07:24:00,28.0,27.5,29.85,North,350,11.0,14.1,98,0.00,,OVC050,0.00,VWS V14.01,2013-03-25 12:24:00,
2013-03-25 07:29:00,28.0,27.5,29.85,NW,324,6.7,12.8,98,0.00,,OVC050,0.00,VWS V14.01,2013-03-25 12:29:00,
2013-03-25 07:34:00,28.0,27.5,29.85,North,7,6.3,15.4,98,0.00,,OVC050,0.00,VWS V14.01,2013-03-25 12:34:00,
2013-03-25 07:39:00,28.0,27.5,29.85,NNW,327,13.2,17.4,98,0.00,,OVC050,0.00,VWS V14.01,2013-03-25 12:39:00,
2013-03-25 07:45:00,28.2,27.7,29.85,NNW,342,8.1,17.0,98,0.00,,OVC050,0.00,VWS V14.01,2013-03-25 12:45:00,
2013-03-25 07:50:00,28.2,27.7,29.88,NW,315,6.3,15.4,98,0.00,,OVC050,0.00,VWS V14.01,2013-03-25 12:50:00,
2013-03-25 07:55:00,28.2,27.7,29.88,North,10,8.3,15.4,98,0.00,,OVC050,0.00,VWS V14.01,2013-03-25 12:55:00,
2013-03-25 08:00:00,28.2,27.7,29.88,North,1,5.4,15.0,98,0.00,,OVC050,0.00,VWS V14.01,2013-03-25 13:00:00,
2013-03-25 08:05:00,28.0,25.8,29.88,NW,323,6.3,18.8,91,0.00,,OVC050,0.00,VWS V14.01,2013-03-25 13:05:00,
2013-03-25 08:10:00,28.2,25.9,29.88,NNW,344,12.8,17.4,91,0.00,,OVC050,0.00,VWS V14.01,2013-03-25 13:10:00,
2013-03-25 08:15:00,28.2,25.9,29.88,North,5,7.6,7.6,91,0.00,,OVC050,0.00,VWS V14.01,2013-03-25 13:15:00,
2013-03-25 08:20:00,28.2,27.7,29.88,NW,325,5.8,12.8,98,0.00,,OVC050,0.00,VWS V14.01,2013-03-25 13:20:00,
2013-03-25 08:25:00,28.2,27.7,29.88,North,353,8.1,8.1,98,0.00,,OVC050,0.00,VWS V14.01,2013-03-25 13:25:00,
2013-03-25 08:30:00,28.2,27.7,29.88,NNW,346,11.0,11.0,98,0.00,,OVC050,0.00,VWS V14.01,2013-03-25 13:30:00,
2013-03-25 08:35:00,28.2,27.7,29.88,NNW,338,5.8,5.8,98,0.00,,OVC050,0.00,VWS V14.01,2013-03-25 13:35:00,
2013-03-25 08:40:00,28.2,27.7,29.88,North,0,9.2,9.2,98,0.00,,OVC050,0.00,VWS V14.01,2013-03-25 13:40:00,
2013-03-25 08:45:00,28.2,27.7,29.88,NW,326,6.3,8.1,98,0.00,,OVC050,0.00,VWS V14.01,2013-03-25 13:45:00,
2013-03-25 08:50:00,28.2,27.7,29.88,North,9,7.6,10.1,98,0.00,,OVC050,0.00,VWS V14.01,2013-03-25 13:50:00,
2013-03-25 08:55:00,28.2,27.7,29.88,NNW,329,7.6,7.6,98,0.00,,OVC050,0.00,VWS V14.01,2013-03-25 13:55:00,
2013-03-25 09:00:00,28.2,27.7,29.91,NW,325,5.4,5.4,98,0.00,,OVC050,0.00,VWS V14.01,2013-03-25 14:00:00,
2013-03-25 09:05:00,28.2,27.7,29.91,North,0,13.2,13.2,98,0.00,,OVC050,0.00,VWS V14.01,2013-03-25 14:05:00,
2013-03-25 09:10:00,28.2,27.7,29.91,WNW,303,6.3,8.7,98,0.00,,OVC050,0.00,VWS V14.01,2013-03-25 14:10:00,
2013-03-25 09:15:00,28.2,27.7,29.88,North,357,11.0,11.0,98,0.00,,OVC050,0.00,VWS V14.01,2013-03-25 14:15:00,
2013-03-25 09:20:00,28.4,27.9,29.88,North,353,4.0,8.7,98,0.00,,OVC050,0.00,VWS V14.01,2013-03-25 14:20:00,
2013-03-25 09:25:00,28.4,27.9,29.88,NNW,343,8.7,11.9,98,0.00,,OVC050,0.00,VWS V14.01,2013-03-25 14:25:00,
2013-03-25 09:30:00,28.6,28.1,29.91,North,353,8.7,10.1,98,0.00,,OVC050,0.00,VWS V14.01,2013-03-25 14:30:00,
2013-03-25 09:35:00,28.6,28.1,29.91,NNW,334,7.6,7.6,98,0.00,,OVC050,0.00,VWS V14.01,2013-03-25 14:35:00,
2013-03-25 09:41:00,28.9,28.5,29.91,NW,319,13.2,14.1,98,0.00,,OVC050,0.00,VWS V14.01,2013-03-25 14:41:00,
2013-03-25 09:46:00,29.1,28.6,29.91,NNE,25,12.3,13.2,98,0.00,,OVC037,0.00,VWS V14.01,2013-03-25 14:46:00,
2013-03-25 09:51:00,29.3,28.8,29.91,WNW,300,6.3,8.1,98,0.00,,OVC037,0.00,VWS V14.01,2013-03-25 14:51:00,
2013-03-25 09:56:00,29.5,29.0,29.91,NNW,344,10.1,12.8,98,0.00,,OVC037,0.00,VWS V14.01,2013-03-25 14:56:00,
2013-03-25 10:01:00,29.7,29.2,29.91,North,350,10.1,10.1,98,0.00,,OVC037,0.00,VWS V14.01,2013-03-25 15:01:00,
2013-03-25 10:06:00,29.8,29.3,29.91,NNW,340,11.0,15.4,98,0.00,,,0.00,VWS V14.01,2013-03-25 15:06:00,
2013-03-25 10:11:00,30.2,29.7,29.91,North,357,8.3,11.0,98,0.00,,,0.00,VWS V14.01,2013-03-25 15:11:00,
2013-03-25 10:17:00,30.2,29.7,29.91,NNE,23,10.5,10.5,98,0.00,,,0.00,VWS V14.01,2013-03-25 15:17:00,
2013-03-25 10:22:00,30.0,29.5,29.91,NW,317,7.6,11.0,98,0.00,,,0.00,VWS V14.01,2013-03-25 15:22:00,
2013-03-25 10:27:00,29.8,29.3,29.91,NW,305,2.7,8.7,98,0.00,,,0.00,VWS V14.01,2013-03-25 15:27:00,
2013-03-25 10:32:00,30.0,29.5,29.94,North,0,8.3,13.2,98,0.00,,,0.00,VWS V14.01,2013-03-25 15:32:00,
2013-03-25 10:37:00,30.2,29.7,29.94,WNW,303,10.5,10.5,98,0.00,,,0.00,VWS V14.01,2013-03-25 15:37:00,
2013-03-25 10:42:00,30.4,29.9,29.94,NNW,334,5.8,17.4,98,0.00,,,0.00,VWS V14.01,2013-03-25 15:42:00,
2013-03-25 10:47:00,30.4,29.9,29.94,North,353,11.0,13.2,98,0.00,,,0.00,VWS V14.01,2013-03-25 15:47:00,
2013-03-25 10:52:00,30.4,29.9,29.94,NNW,339,4.0,15.4,98,0.00,,,0.00,VWS V14.01,2013-03-25 15:52:00,
2013-03-25 10:57:00,30.4,29.9,29.94,NNW,338,13.2,13.2,98,0.00,,,0.00,VWS V14.01,2013-03-25 15:57:00,
2013-03-25 11:03:00,30.7,30.2,29.94,North,0,5.8,11.4,98,0.00,,,0.00,VWS V14.01,2013-03-25 16:03:00,
2013-03-25 11:08:00,30.9,30.4,29.94,NNW,345,8.1,12.8,98,0.00,,,0.00,VWS V14.01,2013-03-25 16:08:00,
2013-03-25 11:13:00,31.3,30.8,29.94,North,350,10.5,10.5,98,0.00,,,0.00,VWS V14.01,2013-03-25 16:13:00,
2013-03-25 11:18:00,31.3,28.0,29.94,North,353,7.6,13.2,88,0.00,,,0.00,VWS V14.01,2013-03-25 16:18:00,
2013-03-25 11:23:00,31.5,28.2,29.94,WNW,297,5.4,14.5,88,0.00,,BKN100,0.00,VWS V14.01,2013-03-25 16:23:00,
2013-03-25 11:28:00,31.8,28.5,29.94,WNW,284,7.6,10.5,88,0.00,,BKN100,0.00,VWS V14.01,2013-03-25 16:28:00,
2013-03-25 11:33:00,32.0,28.7,29.94,North,350,10.5,17.4,88,0.00,,BKN100,0.00,VWS V14.01,2013-03-25 16:33:00,
2013-03-25 11:38:00,32.2,28.9,29.94,NW,318,7.6,15.0,88,0.00,,BKN100,0.00,VWS V14.01,2013-03-25 16:38:00,
2013-03-25 11:44:00,32.4,29.1,29.94,NNW,339,6.3,17.4,88,0.00,,BKN100,0.00,VWS V14.01,2013-03-25 16:44:00,
2013-03-25 11:49:00,32.7,29.4,29.94,NNW,342,4.9,11.0,88,0.00,,OVC018,0.00,VWS V14.01,2013-03-25 16:49:00,
2013-03-25 11:54:00,33.3,30.0,29.94,NNW,340,5.8,10.5,88,0.00,,OVC018,0.00,VWS V14.01,2013-03-25 16:54:00,
2013-03-25 11:59:00,33.6,30.3,29.94,WNW,293,8.3,9.6,88,0.00,,OVC018,0.00,VWS V14.01,2013-03-25 16:59:00,
2013-03-25 12:04:00,33.4,30.1,29.94,North,353,11.0,15.4,88,0.00,,OVC023,0.00,VWS V14.01,2013-03-25 17:04:00,
2013-03-25 12:09:00,33.4,30.1,29.94,NW,313,0.0,10.5,88,0.00,,OVC023,0.00,VWS V14.01,2013-03-25 17:09:00,
2013-03-25 12:14:00,33.8,30.5,29.94,NNW,345,15.0,15.4,88,0.00,,OVC023,0.00,VWS V14.01,2013-03-25 17:14:00,
2013-03-25 12:19:00,33.4,30.1,29.94,NNW,339,11.9,15.0,88,0.00,,OVC023,0.00,VWS V14.01,2013-03-25 17:19:00,
2013-03-25 12:24:00,33.6,30.3,29.94,North,353,3.1,11.9,88,0.00,,OVC050,0.00,VWS V14.01,2013-03-25 17:24:00,
2013-03-25 12:29:00,33.8,30.5,29.94,NNW,339,8.1,15.0,88,0.00,,OVC050,0.00,VWS V14.01,2013-03-25 17:29:00,
2013-03-25 12:34:00,33.8,30.5,29.94,NNW,348,8.1,12.3,88,0.00,,OVC050,0.00,VWS V14.01,2013-03-25 17:34:00,
2013-03-25 12:39:00,33.8,30.5,29.94,NW,306,4.0,14.5,88,0.00,,OVC050,0.00,VWS V14.01,2013-03-25 17:39:00,
2013-03-25 12:44:00,34.0,30.7,29.94,North,3,11.0,13.2,88,0.00,,OVC044,0.00,VWS V14.01,2013-03-25 17:44:00,
2013-03-25 12:49:00,34.3,31.0,29.94,North,0,12.3,15.0,88,0.00,,OVC044,0.00,VWS V14.01,2013-03-25 17:49:00,
2013-03-25 12:55:00,34.2,30.8,29.94,North,353,19.2,19.2,88,0.00,,OVC044,0.00,VWS V14.01,2013-03-25 17:55:00,
2013-03-25 13:00:00,34.0,30.7,29.94,North,10,10.5,19.2,88,0.00,,OVC044,0.00,VWS V14.01,2013-03-25 18:00:00,
2013-03-25 13:05:00,34.0,30.7,29.97,NNW,338,3.6,3.6,88,0.00,,OVC055,0.00,VWS V14.01,2013-03-25 18:05:00,
2013-03-25 13:10:00,34.3,31.0,29.97,North,350,13.2,13.2,88,0.00,,OVC055,0.00,VWS V14.01,2013-03-25 18:10:00,
2013-03-25 13:15:00,34.3,31.0,29.97,NW,320,10.1,10.1,88,0.00,,OVC055,0.00,VWS V14.01,2013-03-25 18:15:00,
2013-03-25 13:20:00,34.9,31.5,29.97,NE,42,5.8,12.8,88,0.00,,OVC055,0.00,VWS V14.01,2013-03-25 18:20:00,
2013-03-25 13:25:00,34.9,31.5,29.97,North,5,7.2,8.3,88,0.00,,OVC055,0.00,VWS V14.01,2013-03-25 18:25:00,
2013-03-25 13:30:00,35.1,31.7,29.97,North,0,10.5,10.5,88,0.00,,OVC055,0.00,VWS V14.01,2013-03-25 18:30:00,
2013-03-25 13:35:00,35.1,31.7,29.97,NW,305,11.9,11.9,88,0.00,,OVC055,0.00,VWS V14.01,2013-03-25 18:35:00,
2013-03-25 13:40:00,35.6,31.2,29.97,NNW,335,14.5,14.5,84,0.00,,OVC055,0.00,VWS V14.01,2013-03-25 18:40:00,
2013-03-25 13:45:00,35.8,31.4,29.97,NNW,345,10.1,15.0,84,0.00,,OVC065,0.00,VWS V14.01,2013-03-25 18:45:00,
2013-03-25 13:50:00,36.1,31.8,29.97,North,353,8.1,10.1,84,0.00,,OVC065,0.00,VWS V14.01,2013-03-25 18:50:00,
2013-03-25 13:56:00,36.0,31.6,29.97,NNW,338,10.5,10.5,84,0.00,,OVC065,0.00,VWS V14.01,2013-03-25 18:56:00,
2013-03-25 14:02:00,36.1,31.8,29.97,North,0,11.9,21.5,84,0.00,,OVC065,0.00,VWS V14.01,2013-03-25 19:02:00,
2013-03-25 14:07:00,36.1,31.8,29.97,NNW,338,7.6,12.3,84,0.00,,OVC065,0.00,VWS V14.01,2013-03-25 19:07:00,
2013-03-25 14:12:00,36.3,32.0,29.97,NNW,348,5.4,11.0,84,0.00,,OVC065,0.00,VWS V14.01,2013-03-25 19:12:00,
2013-03-25 14:17:00,36.5,32.1,29.97,NNW,345,11.0,13.6,84,0.00,,OVC065,0.00,VWS V14.01,2013-03-25 19:17:00,
2013-03-25 14:22:00,36.1,31.8,29.97,NNW,335,8.1,18.3,84,0.00,,BKN065,0.00,VWS V14.01,2013-03-25 19:22:00,
2013-03-25 14:27:00,36.0,31.6,29.97,NNW,342,17.9,17.9,84,0.00,,BKN065,0.00,VWS V14.01,2013-03-25 19:27:00,
2013-03-25 14:32:00,36.1,31.8,29.97,NNW,332,8.3,10.5,84,0.00,,BKN065,0.00,VWS V14.01,2013-03-25 19:32:00,
2013-03-25 14:37:00,36.3,32.0,29.97,North,4,11.9,11.9,84,0.00,,BKN065,0.00,VWS V14.01,2013-03-25 19:37:00,
2013-03-25 14:42:00,36.7,32.3,29.97,North,357,8.1,14.1,84,0.00,,SCT065,0.00,VWS V14.01,2013-03-25 19:42:00,
2013-03-25 14:47:00,36.9,32.5,29.97,North,2,12.8,12.8,84,0.00,,SCT065,0.00,VWS V14.01,2013-03-25 19:47:00,
2013-03-25 14:52:00,36.9,32.5,29.97,North,353,8.3,8.7,84,0.00,,SCT065,0.00,VWS V14.01,2013-03-25 19:52:00,
2013-03-25 14:57:00,37.0,32.7,29.97,North,0,8.1,13.2,84,0.00,,SCT065,0.00,VWS V14.01,2013-03-25 19:57:00,
2013-03-25 15:03:00,37.0,32.7,30.00,North,353,6.3,17.9,84,0.00,,SCT065,0.00,VWS V14.01,2013-03-25 20:03:00,
2013-03-25 15:08:00,36.7,32.3,30.00,NNW,338,11.9,17.4,84,0.00,,SCT065,0.00,VWS V14.01,2013-03-25 20:08:00,
2013-03-25 15:13:00,36.5,32.1,30.00,North,0,8.3,17.0,84,0.00,,SCT065,0.00,VWS V14.01,2013-03-25 20:13:00,
2013-03-25 15:18:00,36.7,32.3,30.00,North,350,11.4,11.4,84,0.00,,BKN065,0.00,VWS V14.01,2013-03-25 20:18:00,
2013-03-25 15:23:00,36.9,32.5,30.00,North,357,12.3,15.4,84,0.04,,BKN065,0.04,VWS V14.01,2013-03-25 20:23:00,
2013-03-25 15:28:00,36.9,32.5,30.00,North,0,8.7,12.3,84,0.04,,BKN065,0.04,VWS V14.01,2013-03-25 20:28:00,
2013-03-25 15:33:00,36.7,32.3,30.00,NNW,332,5.8,10.5,84,0.04,,BKN065,0.04,VWS V14.01,2013-03-25 20:33:00,
2013-03-25 15:38:00,36.5,32.1,30.00,North,353,6.3,12.3,84,0.04,,BKN065,0.04,VWS V14.01,2013-03-25 20:38:00,
2013-03-25 15:43:00,36.3,32.0,30.00,NW,320,7.6,19.2,84,0.04,,SCT120,0.04,VWS V14.01,2013-03-25 20:43:00,
2013-03-25 15:48:00,36.3,32.0,30.00,NNW,335,8.1,13.2,84,0.04,,SCT120,0.04,VWS V14.01,2013-03-25 20:48:00,
2013-03-25 15:53:00,36.3,32.0,30.00,North,1,11.0,13.2,84,0.04,,SCT120,0.04,VWS V14.01,2013-03-25 20:53:00,
2013-03-25 15:58:00,36.1,31.8,30.00,NW,318,7.6,15.0,84,0.04,,SCT120,0.04,VWS V14.01,2013-03-25 20:58:00,
2013-03-25 16:03:00,36.1,31.8,30.00,North,8,8.3,11.4,84,0.04,,SCT120,0.04,VWS V14.01,2013-03-25 21:03:00,
2013-03-25 16:09:00,36.1,31.8,30.00,NW,313,5.8,14.5,84,0.04,,SCT120,0.04,VWS V14.01,2013-03-25 21:09:00,
2013-03-25 16:14:00,36.1,31.8,30.00,NNW,343,6.7,13.2,84,0.04,,SCT120,0.04,VWS V14.01,2013-03-25 21:14:00,
2013-03-25 16:19:00,36.1,31.8,30.00,NNW,333,5.8,10.1,84,0.04,,SCT120,0.04,VWS V14.01,2013-03-25 21:19:00,
2013-03-25 16:24:00,36.1,31.8,30.00,NNW,338,8.7,14.5,84,0.08,,SCT120,0.08,VWS V14.01,2013-03-25 21:24:00,
2013-03-25 16:29:00,36.0,31.6,30.00,North,357,8.1,15.0,84,0.04,,SCT120,0.08,VWS V14.01,2013-03-25 21:29:00,
2013-03-25 16:34:00,36.0,31.6,30.03,NNE,13,7.6,11.0,84,0.04,,SCT120,0.08,VWS V14.01,2013-03-25 21:34:00,
2013-03-25 16:39:00,36.1,31.8,30.03,NW,316,4.9,8.7,84,0.04,,CLR,0.08,VWS V14.01,2013-03-25 21:39:00,
2013-03-25 16:44:00,36.1,31.8,30.03,North,357,6.3,10.5,84,0.04,,CLR,0.08,VWS V14.01,2013-03-25 21:44:00,
2013-03-25 16:49:00,36.0,31.6,30.03,NNW,346,12.3,17.4,84,0.04,,CLR,0.08,VWS V14.01,2013-03-25 21:49:00,
2013-03-25 16:54:00,35.6,31.2,30.03,NNW,338,10.1,12.3,84,0.04,,CLR,0.08,VWS V14.01,2013-03-25 21:54:00,
2013-03-25 16:59:00,35.2,31.9,30.03,NNW,336,12.3,12.3,88,0.04,,CLR,0.08,VWS V14.01,2013-03-25 21:59:00,
2013-03-25 17:04:00,35.1,31.7,30.03,NNW,328,4.9,10.1,88,0.04,,CLR,0.08,VWS V14.01,2013-03-25 22:04:00,
2013-03-25 17:10:00,34.9,31.5,30.03,NNW,344,12.8,12.8,88,0.04,,CLR,0.08,VWS V14.01,2013-03-25 22:10:00,
2013-03-25 17:15:00,34.9,31.5,30.03,North,0,12.3,13.2,88,0.04,,SCT055,0.08,VWS V14.01,2013-03-25 22:15:00,
2013-03-25 17:20:00,34.9,31.5,30.03,North,353,7.6,12.3,88,0.04,,SCT055,0.08,VWS V14.01,2013-03-25 22:20:00,
2013-03-25 17:25:00,34.9,31.5,30.03,North,357,9.6,9.6,88,0.04,,BKN055,0.08,VWS V14.01,2013-03-25 22:25:00,
2013-03-25 17:30:00,34.7,31.4,30.03,NNW,334,8.7,13.6,88,0.00,,BKN055,0.08,VWS V14.01,2013-03-25 22:30:00,
2013-03-25 17:35:00,34.9,31.5,30.06,NNW,344,8.7,10.1,88,0.00,,BKN055,0.08,VWS V14.01,2013-03-25 22:35:00,
2013-03-25 17:40:00,34.9,31.5,30.06,NNW,340,6.3,13.2,88,0.00,,BKN055,0.08,VWS V14.01,2013-03-25 22:40:00,
2013-03-25 17:45:00,34.7,31.4,30.06,NNW,329,3.1,4.9,88,0.00,,OVC050,0.08,VWS V14.01,2013-03-25 22:45:00,
2013-03-25 17:50:00,34.7,31.4,30.06,NW,326,4.9,7.2,88,0.00,,OVC050,0.08,VWS V14.01,2013-03-25 22:50:00,
2013-03-25 17:55:00,34.7,31.4,30.06,North,353,5.8,8.7,88,0.00,,OVC050,0.08,VWS V14.01,2013-03-25 22:55:00,
2013-03-25 18:00:00,34.5,31.2,30.06,North,9,5.4,5.4,88,0.00,,OVC050,0.08,VWS V14.01,2013-03-25 23:00:00,
2013-03-25 18:05:00,34.5,31.2,30.06,NNW,343,5.4,5.4,88,0.00,,OVC050,0.08,VWS V14.01,2013-03-25 23:05:00,
2013-03-25 18:10:00,34.5,31.2,30.06,NNW,343,3.6,4.9,88,0.00,,OVC050,0.08,VWS V14.01,2013-03-25 23:10:00,
2013-03-25 18:15:00,34.5,31.2,30.06,NW,319,4.0,4.0,88,0.00,,OVC050,0.08,VWS V14.01,2013-03-25 23:15:00,
2013-03-25 18:20:00,34.5,31.2,30.06,North,5,5.8,8.3,88,0.00,,OVC050,0.08,VWS V14.01,2013-03-25 23:20:00,
2013-03-25 18:25:00,34.5,31.2,30.06,NW,324,4.0,4.0,88,0.00,,OVC050,0.08,VWS V14.01,2013-03-25 23:25:00,
2013-03-25 18:30:00,34.5,31.2,30.09,North,350,5.8,7.2,88,0.00,,OVC050,0.08,VWS V14.01,2013-03-25 23:30:00,
2013-03-25 18:35:00,34.5,31.2,30.09,NNW,341,2.7,4.0,88,0.00,,OVC050,0.08,VWS V14.01,2013-03-25 23:35:00,
2013-03-25 18:40:00,34.5,31.2,30.09,North,357,5.4,6.3,88,0.00,,OVC050,0.08,VWS V14.01,2013-03-25 23:40:00,
2013-03-25 18:45:00,34.5,31.2,30.09,NNW,333,5.4,8.7,88,0.00,,OVC050,0.08,VWS V14.01,2013-03-25 23:45:00,
2013-03-25 18:51:00,34.5,31.2,30.09,NW,326,6.3,10.5,88,0.00,,OVC050,0.08,VWS V14.01,2013-03-25 23:51:00,
2013-03-25 18:56:00,34.5,31.2,30.09,WNW,294,5.8,6.3,88,0.00,,OVC050,0.08,VWS V14.01,2013-03-25 23:56:00,
2013-03-25 19:01:00,34.3,31.0,30.09,NNW,330,8.7,10.1,88,0.00,,OVC050,0.08,VWS V14.01,2013-03-26 00:01:00,
2013-03-25 19:06:00,34.3,31.0,30.09,NW,324,5.8,8.1,88,0.00,,OVC050,0.08,VWS V14.01,2013-03-26 00:06:00,
2013-03-25 19:11:00,34.3,31.0,30.09,NW,310,6.3,10.1,88,0.00,,OVC050,0.08,VWS V14.01,2013-03-26 00:11:00,
2013-03-25 19:16:00,34.3,31.0,30.09,North,349,6.3,7.6,88,0.00,,OVC050,0.08,VWS V14.01,2013-03-26 00:16:00,
2013-03-25 19:21:00,34.3,31.0,30.09,NNW,342,8.1,8.3,88,0.00,,OVC060,0.08,VWS V14.01,2013-03-26 00:21:00,
2013-03-25 19:27:00,34.3,31.0,30.09,NNW,340,6.3,6.3,88,0.00,,OVC060,0.08,VWS V14.01,2013-03-26 00:27:00,
2013-03-25 19:32:00,34.2,30.8,30.09,NNW,339,4.9,8.7,88,0.00,,OVC060,0.08,VWS V14.01,2013-03-26 00:32:00,
2013-03-25 19:37:00,34.2,30.8,30.09,NNW,333,3.1,10.1,88,0.00,,OVC060,0.08,VWS V14.01,2013-03-26 00:37:00,
2013-03-25 19:42:00,34.2,30.8,30.09,North,349,6.3,8.1,88,0.00,,OVC060,0.08,VWS V14.01,2013-03-26 00:42:00,
2013-03-25 19:47:00,34.2,30.8,30.09,NW,312,4.9,10.1,88,0.00,,OVC060,0.08,VWS V14.01,2013-03-26 00:47:00,
2013-03-25 19:52:00,34.2,30.8,30.09,North,0,6.3,8.3,88,0.00,,OVC060,0.08,VWS V14.01,2013-03-26 00:52:00,
2013-03-25 19:57:00,34.2,30.8,30.09,NNW,340,4.0,8.3,88,0.00,,OVC060,0.08,VWS V14.01,2013-03-26 00:57:00,
2013-03-25 20:02:00,34.2,30.8,30.11,NNW,328,5.4,8.7,88,0.00,,OVC050,0.08,VWS V14.01,2013-03-26 01:02:00,
2013-03-25 20:08:00,34.2,30.8,30.11,NW,326,5.4,6.3,88,0.00,,OVC050,0.08,VWS V14.01,2013-03-26 01:08:00,
2013-03-25 20:13:00,34.0,30.7,30.11,North,353,3.1,8.1,88,0.00,,OVC050,0.08,VWS V14.01,2013-03-26 01:13:00,
2013-03-25 20:18:00,34.0,30.7,30.11,North,0,6.3,7.6,88,0.00,,OVC050,0.08,VWS V14.01,2013-03-26 01:18:00,
2013-03-25 20:23:00,34.0,30.7,30.11,NW,321,8.1,8.1,88,0.00,,OVC048,0.08,VWS V14.01,2013-03-26 01:23:00,
2013-03-25 20:28:00,34.0,30.7,30.11,NNW,339,4.0,7.6,88,0.00,,OVC048,0.08,VWS V14.01,2013-03-26 01:28:00,
2013-03-25 20:33:00,34.0,30.7,30.11,NNW,329,6.3,8.7,88,0.00,,OVC048,0.08,VWS V14.01,2013-03-26 01:33:00,
2013-03-25 20:38:00,34.0,30.7,30.11,NNW,328,7.6,8.3,88,0.00,,OVC048,0.08,VWS V14.01,2013-03-26 01:38:00,
2013-03-25 20:43:00,34.0,30.7,30.11,North,0,5.8,8.7,88,0.00,,OVC046,0.08,VWS V14.01,2013-03-26 01:43:00,
2013-03-25 20:48:00,33.8,30.5,30.11,NNW,342,4.0,8.7,88,0.00,,OVC046,0.08,VWS V14.01,2013-03-26 01:48:00,
2013-03-25 20:53:00,33.8,30.5,30.11,North,0,8.3,9.6,88,0.00,,OVC046,0.08,VWS V14.01,2013-03-26 01:53:00,
2013-03-25 20:58:00,33.8,30.5,30.11,North,353,5.8,5.8,88,0.00,,OVC046,0.08,VWS V14.01,2013-03-26 01:58:00,
2013-03-25 21:03:00,33.8,30.5,30.11,North,349,4.0,6.3,88,0.00,,OVC046,0.08,VWS V14.01,2013-03-26 02:03:00,
2013-03-25 21:08:00,33.8,30.5,30.11,North,0,5.4,8.1,88,0.00,,OVC046,0.08,VWS V14.01,2013-03-26 02:08:00,
2013-03-25 21:14:00,33.8,30.5,30.11,NNW,348,6.3,10.5,88,0.00,,OVC046,0.08,VWS V14.01,2013-03-26 02:14:00,
2013-03-25 21:19:00,33.8,30.5,30.14,North,2,5.4,8.3,88,0.00,,OVC046,0.08,VWS V14.01,2013-03-26 02:19:00,
2013-03-25 21:24:00,33.8,30.5,30.14,North,350,5.8,8.3,88,0.00,,OVC046,0.08,VWS V14.01,2013-03-26 02:24:00,
2013-03-25 21:29:00,33.8,30.5,30.14,NW,319,3.6,7.6,88,0.00,,OVC046,0.08,VWS V14.01,2013-03-26 02:29:00,
2013-03-25 21:34:00,33.6,30.3,30.14,NW,317,5.4,8.3,88,0.00,,OVC046,0.08,VWS V14.01,2013-03-26 02:34:00,
2013-03-25 21:39:00,33.6,30.3,30.14,NNW,344,5.8,10.5,88,0.00,,OVC046,0.08,VWS V14.01,2013-03-26 02:39:00,
2013-03-25 21:44:00,33.8,30.5,30.14,NNW,329,4.0,8.7,88,0.00,,OVC046,0.08,VWS V14.01,2013-03-26 02:44:00,
2013-03-25 21:49:00,33.8,30.5,30.14,NW,325,6.3,8.3,88,0.00,,OVC046,0.08,VWS V14.01,2013-03-26 02:49:00,
2013-03-25 21:54:00,33.8,30.5,30.14,North,353,5.4,5.8,88,0.00,,OVC046,0.08,VWS V14.01,2013-03-26 02:54:00,
2013-03-25 21:59:00,33.8,30.5,30.14,North,353,4.0,8.1,88,0.00,,OVC046,0.08,VWS V14.01,2013-03-26 02:59:00,
2013-03-25 22:04:00,33.8,30.5,30.14,NNE,12,5.4,8.1,88,0.00,,OVC044,0.08,VWS V14.01,2013-03-26 03:04:00,
2013-03-25 22:09:00,33.8,30.5,30.14,NW,324,5.4,6.3,88,0.00,,OVC044,0.08,VWS V14.01,2013-03-26 03:09:00,
2013-03-25 22:14:00,33.8,30.5,30.14,NNW,332,5.8,5.8,88,0.00,,OVC044,0.08,VWS V14.01,2013-03-26 03:14:00,
2013-03-25 22:19:00,33.8,30.5,30.14,NNW,337,8.1,10.1,88,0.00,,OVC044,0.08,VWS V14.01,2013-03-26 03:19:00,
2013-03-25 22:24:00,33.8,30.5,30.14,NNW,327,5.4,8.1,88,0.00,,OVC044,0.08,VWS V14.01,2013-03-26 03:24:00,
2013-03-25 22:29:00,33.8,30.5,30.14,NNW,335,4.0,8.3,88,0.00,,OVC044,0.08,VWS V14.01,2013-03-26 03:29:00,
2013-03-25 22:34:00,33.6,30.3,30.14,NW,322,3.6,8.3,88,0.00,,OVC044,0.08,VWS V14.01,2013-03-26 03:34:00,
2013-03-25 22:39:00,33.6,30.3,30.14,North,353,7.2,7.2,88,0.00,,OVC044,0.08,VWS V14.01,2013-03-26 03:39:00,
2013-03-25 22:44:00,33.6,30.3,30.14,North,2,4.0,7.6,88,0.00,,OVC046,0.08,VWS V14.01,2013-03-26 03:44:00,
2013-03-25 22:49:00,33.6,30.3,30.14,NNW,331,7.6,8.7,88,0.00,,OVC046,0.08,VWS V14.01,2013-03-26 03:49:00,
2013-03-25 22:55:00,33.6,30.3,30.14,NNW,329,3.6,4.9,88,0.00,,OVC046,0.08,VWS V14.01,2013-03-26 03:55:00,
2013-03-25 23:00:00,33.6,30.3,30.14,WNW,297,0.0,6.3,88,0.00,,OVC046,0.08,VWS V14.01,2013-03-26 04:00:00,
2013-03-25 23:05:00,33.4,30.1,30.14,NNW,339,0.0,0.0,88,0.00,,OVC046,0.08,VWS V14.01,2013-03-26 04:05:00,
2013-03-25 23:10:00,33.4,30.1,30.14,NNW,336,0.0,3.1,88,0.00,,OVC046,0.08,VWS V14.01,2013-03-26 04:10:00,
2013-03-25 23:16:00,33.4,30.1,30.14,NW,320,0.0,0.0,88,0.00,,OVC046,0.08,VWS V14.01,2013-03-26 04:16:00,
2013-03-25 23:21:00,33.3,30.0,30.14,NNW,340,0.0,4.0,88,0.00,,OVC044,0.08,VWS V14.01,2013-03-26 04:21:00,
2013-03-25 23:26:00,33.3,30.0,30.14,NNW,330,3.6,4.0,88,0.00,,OVC044,0.08,VWS V14.01,2013-03-26 04:26:00,
2013-03-25 23:31:00,33.3,30.0,30.14,NNW,328,0.0,3.1,88,0.00,,OVC044,0.08,VWS V14.01,2013-03-26 04:31:00,
2013-03-25 23:36:00,33.3,30.0,30.14,NNW,330,0.0,3.6,88,0.00,,OVC044,0.08,VWS V14.01,2013-03-26 04:36:00,
2013-03-25 23:42:00,33.3,30.0,30.14,WNW,294,0.0,4.0,88,0.00,,OVC042,0.08,VWS V14.01,2013-03-26 04:42:00,
2013-03-25 23:47:00,33.1,29.8,30.14,NNW,331,0.0,0.0,88,0.00,,OVC042,0.08,VWS V14.01,2013-03-26 04:47:00,
2013-03-25 23:52:00,33.1,29.8,30.14,NNW,336,3.1,3.6,88,0.00,,OVC042,0.08,VWS V14.01,2013-03-26 04:52:00,
2013-03-25 23:57:00,33.1,29.8,30.14,NW,321,2.7,6.3,88,0.00,,OVC042,0.08,VWS V14.01,2013-03-26 04:57:00,